TIANTONG-1 1

Last updated on Jan. 21, 2021, 6:16 a.m. UTC

1 41725U 16048A   21020.93096272 -.00000306  00000-0  00000-0 0  9991
2 41725   2.7066 339.0670 0005370   1.1908 216.7315  1.00268861 16479
UTC
Height (km)
Latitude
Longitude
Inclination
Orbital Period
UTC large
Height (km)
Speed (km/s)
/
Latitude / Longitude
Inclination (degrees)
Orbital Period (minutes)
Azimuth
Elevation
Range (km)
Doppler Factor
iOS Compass Heading
iOS Angle

Next 30 passes for location: Hong Kong

Rise time Rise Azimuth (degrees) Set time Set Azimuth (degrees) Duration Max altitude (degrees)

No matching passes for this satellites